www.pogodaiklimat.ru
ПОГОДА в Нурафшане

Архив погоды в Нурафшане (Ташкентская область, Узбекистан)

Время
и дата
11:00 26.05
11:10 26.05
11:30 26.05
11:40 26.05
11:50 26.05
12:00 26.05
12:20 26.05
12:30 26.05
12:40 26.05
12:50 26.05
13:00 26.05
13:10 26.05
13:20 26.05
13:40 26.05
13:50 26.05
14:00 26.05
14:10 26.05
14:20 26.05
14:40 26.05
14:50 26.05
15:10 26.05
15:20 26.05
15:30 26.05
15:50 26.05
16:00 26.05
16:20 26.05
16:40 26.05
17:00 26.05
17:10 26.05
17:20 26.05
17:40 26.05
17:50 26.05
18:00 26.05
18:10 26.05
18:20 26.05
18:30 26.05
18:40 26.05
18:50 26.05
19:10 26.05
19:30 26.05
19:40 26.05
19:50 26.05
20:10 26.05
20:20 26.05
20:30 26.05
20:40 26.05
20:50 26.05
21:00 26.05
21:20 26.05
21:30 26.05
21:40 26.05
22:00 26.05
22:10 26.05
22:30 26.05
22:40 26.05
22:50 26.05
23:00 26.05
23:20 26.05
23:40 26.05
23:50 26.05
00:00 27.05
00:20 27.05
00:30 27.05
00:50 27.05
01:00 27.05
01:20 27.05
01:30 27.05
01:40 27.05
01:50 27.05
02:10 27.05
02:20 27.05
02:40 27.05
02:50 27.05
03:00 27.05
03:10 27.05
03:20 27.05
03:30 27.05
03:40 27.05
04:00 27.05
04:20 27.05
04:30 27.05
04:50 27.05
05:00 27.05
05:10 27.05
05:30 27.05
05:40 27.05
05:50 27.05
06:10 27.05
06:30 27.05
06:40 27.05
06:50 27.05
07:10 27.05
07:30 27.05
07:50 27.05
08:00 27.05
08:10 27.05
08:20 27.05
08:40 27.05
09:00 27.05
09:10 27.05
09:20 27.05
09:30 27.05
09:40 27.05
09:50 27.05
10:00 27.05
10:10 27.05
10:20 27.05
10:30 27.05
10:40 27.05
10:50 27.05
11:00 27.05
11:10 27.05
11:20 27.05
11:30 27.05
11:40 27.05
11:50 27.05
12:00 27.05
12:10 27.05
12:20 27.05
12:30 27.05
12:40 27.05
12:50 27.05
13:00 27.05
13:10 27.05
13:20 27.05
13:30 27.05
13:40 27.05
13:50 27.05
14:00 27.05
14:10 27.05
14:30 27.05
14:40 27.05
14:50 27.05
15:00 27.05
15:10 27.05
15:20 27.05
15:30 27.05
15:40 27.05
15:50 27.05
16:00 27.05
16:10 27.05
16:20 27.05
16:30 27.05
16:40 27.05
Ветер
(напр.,м/с)
Видимость Явления Солнечная радиация
(Вт/м2)
Т
(С)
Тd
(С)
f
(%)
Тe
(С)
Тes
(С)
Комфортность P
(гПа)
Po
(гПа)
Тmin
(С)
Tmax
(С)
R
(мм)
СЗ 2.5
{5.7}
+16.5 +2.6 39 +17 +17 1025.9 979.7 +16.5 +16.0
З 2.2
{5.5}
+16.4 +0.1 33 +17 +17 1025.9 979.7 +16.6 +16.1
З 2.5
{5.3}
+17.2 0.0 31 +17 +17 1025.8 979.6 +17.5 +16.8
З 2.2
{4.5}
+17.5 -0.6 29 +18 +18 1025.8 979.6 +17.6 +16.9
З 1.9
{4.5}
+18.0 0.0 30 +19 +19 1025.7 979.5 +18.2 +17.3
З 2.2
{5.2}
+17.2 -0.7 30 +18 +18 1025.7 979.5 +18.0 +17.1
ЮЗ 3.0
{5.1}
+17.7 -0.9 28 +18 +18 1025.6 979.4 +17.9 +17.6
З 2.5
{5.5}
+17.9 -1.3 27 +18 +18 1025.5 979.3 +18.2 +17.7
СЗ 2.2
{4.9}
+18.2 -2.1 25 +19 +19 1025.5 979.3 +18.5 +17.9
З 2.4
{5.2}
+18.1 -2.2 25 +18 +18 1025.5 979.3 +18.3 +17.8
З 1.8
{5.1}
+18.5 -2.0 25 +19 +19 1025.4 979.2 +18.6 +18.1
СЗ 1.7
{3.9}
+19.1 +0.2 28 +20 +20 1025.4 979.2 +19.1 +18.4
З 2.3
{5.0}
+18.9 -0.9 26 +19 +19 1025.3 979.1 +19.3 +18.8
З 2.1
{5.3}
+19.6 -0.7 26 +20 +20 1025.2 979.0 +19.6 +19.0
З 2.5
{5.1}
+19.4 -1.5 24 +20 +20 1025.1 978.9 +19.8 +19.2
З 2.3
{5.0}
+19.7 -1.0 25 +20 +20 1025.1 978.9 +19.8 +19.2
З 2.3
{4.4}
+19.2 -2.1 24 +20 +20 1025.1 978.9 +19.8 +19.3
ЮЗ 2.5
{4.8}
+20.1 -0.9 24 +21 +21 комфорт 1025.0 978.8 +20.2 +19.2
СЗ 2.1
{5.0}
+20.4 -1.1 24 +21 +21 комфорт 1024.7 978.6 +20.5 +20.0
З 2.4
{5.3}
+20.0 -0.9 25 +21 +21 комфорт 1024.5 978.4 +20.5 +20.0
З 2.0
{4.2}
+20.2 -1.1 24 +21 +21 комфорт 1024.3 978.2 +20.5 +20.1
СЗ 2.2
{5.3}
+20.2 -1.3 24 +21 +21 комфорт 1024.3 978.2 +20.6 +20.2
З 1.9
{5.5}
+20.4 -1.6 23 +21 +21 комфорт 1024.2 978.1 +20.6 +20.2
СЗ 1.7
{4.0}
+20.8 -1.2 23 +21 +21 комфорт 1024.0 977.9 +20.8 +20.5
З 2.5
{5.0}
+20.9 -0.8 23 +21 +21 комфорт 1023.9 977.8 +21.0 +20.5
З 1.7
{3.8}
+21.1 -0.2 24 +21 +21 комфорт 1023.7 977.6 +21.1 +20.7
З 2.4
{4.8}
+20.9 -0.1 25 +21 +21 комфорт 1023.5 977.4 +21.0 +20.7
СЗ 2.4
{5.1}
+20.8 -1.9 22 +21 +21 комфорт 1023.5 977.4 +21.0 +20.7
З 2.5
{5.3}
+20.9 -1.3 22 +21 +21 комфорт 1023.4 977.3 +21.0 +20.7
З 2.6
{5.2}
+20.8 -2.1 21 +21 +21 комфорт 1023.3 977.2 +21.1 +20.9
ЮЗ 2.9
{5.5}
+20.5 -0.9 24 +21 +21 комфорт 1023.2 977.1 +20.6 +20.5
З 2.8
{5.0}
+20.5 -1.9 22 +21 +21 комфорт 1023.2 977.1 +20.5 +20.3
ЮЗ 2.9
{4.8}
+20.2 -1.5 23 +20 +20 1023.3 977.2 +20.5 +20.2
ЮЗ 3.1
{5.6}
+20.1 -1.9 23 +20 +20 1023.2 977.1 +20.3 +20.2
ЮЗ 2.8
{4.7}
+20.0 -2.3 22 +20 +20 1023.2 977.1 +20.1 +20.0
ЮЗ 2.8
{4.9}
+19.7 -1.3 24 +20 +20 1023.2 977.1 +20.0 +19.7
ЮЗ 2.6
{5.3}
+19.5 -0.7 26 +20 +20 1023.2 977.1 +19.7 +19.5
ЮЗ 2.2
{4.3}
+19.2 -0.2 27 +20 +20 1023.2 977.1 +19.5 +19.2
З 2.0
{3.6}
+18.4 +0.7 30 +19 +19 1023.3 977.2 +18.8 +18.4
ЮЗ 1.5
{3.0}
+17.4 +0.8 33 +18 +18 1023.3 977.2 +17.9 +17.4
ЮЗ 1.5
{2.6}
+16.9 +1.4 35 +18 +18 1023.3 977.2 +17.4 +16.9
ЮЗ 1.4
{2.2}
+15.7 +2.8 42 +16 +16 1023.4 977.3 +16.9 +16.5
ЮЗ 1.5
{2.6}
+15.1 +2.2 42 +15 +15 1023.4 977.3 +15.7 +15.1
ЮЗ 1.3
{2.0}
+14.9 +1.5 40 +15 +15 1023.3 977.2 +15.1 +14.9
ЮЗ 1.2
{2.1}
+14.7 +1.7 41 +15 +15 1023.3 977.2 +14.9 +14.7
ЮЗ 1.2
{2.1}
+14.6 +2.4 44 +15 +15 1023.3 977.2 +14.7 +14.5
З 0.7
{1.2}
+13.9 +2.6 47 +15 +15 1023.3 977.2 +14.6 +13.9
СЗ 0.6
{1.2}
+13.3 +4.3 54 +14 +14 1023.3 977.2 +13.9 +13.3
С 0.7
{1.2}
+12.4 +5.0 61 +13 +13 1023.3 977.2 +12.9 +12.5
СВ 1.4
{2.7}
+12.4 +5.9 64 +12 +12 1023.3 977.2 +12.5 +12.4
СВ 0.7
{1.5}
+12.0 +6.3 68 +13 +13 1023.2 977.1 +12.4 +12.0
СВ 0.6
{1.0}
+10.9 +7.6 80 +11 +11 1023.0 976.9 +11.4 +11.0
СВ 0.7
{1.1}
+10.6 +8.8 89 +11 +11 1022.9 976.8 +10.9 +10.6
СВ 1.4
{1.9}
+10.9 +9.7 92 +10 +10 1022.6 976.5 +10.9 +10.3
СВ 1.5
{2.2}
+11.2 +8.5 84 +10 +10 1022.4 976.3 +11.2 +10.9
СВ 1.2
{2.2}
+11.0 +9.0 88 +10 +10 1022.3 976.2 +11.2 +11.0
СВ 1.2
{1.6}
+11.0 +9.3 89 +10 +10 1022.2 976.1 +11.1 +11.0
СВ 1.3
{2.0}
+10.8 +9.9 94 +10 +10 1022.0 975.9 +10.9 +10.8
СВ 1.3
{1.7}
+10.4 +10.4 100 +9 +9 1021.6 975.6 +10.6 +10.4
В 1.0
{1.7}
+10.1 +10.1 100 +9 +9 1021.5 975.5 +10.4 +10.1
СВ 1.0
{1.5}
+9.8 +9.8 100 +9 +9 1021.4 975.4 +10.1 +9.8
В 1.0
{1.6}
+9.5 +9.5 100 +9 +9 1021.1 975.1 +9.7 +9.5
В 0.7
{1.4}
+9.2 +9.2 100 +9 +9 1021.0 975.0 +9.5 +9.2
В 0.5
{1.1}
+8.8 +8.8 100 +9 +9 1020.8 974.8 +9.0 +8.8
В 0.4
{1.0}
+8.5 +8.5 100 +9 +9 1020.7 974.7 +8.8 +8.5
СВ 1.1
{1.4}
+8.6 +8.6 100 +8 +8 1020.4 974.4 +8.5 +8.3
В 1.2
{2.3}
+8.9 +8.9 100 +8 +8 1020.3 974.3 +8.9 +8.6
В 1.3
{2.4}
+9.1 +9.1 100 +8 +8 1020.2 974.2 +9.1 +8.9
В 1.2
{2.7}
+9.0 +9.0 100 +8 +8 1020.0 974.0 +9.2 +9.0
В 1.2
{2.4}
+8.9 +8.9 100 +8 +8 1019.8 973.8 +9.0 +8.8
В 1.2
{2.6}
+8.7 +8.7 100 +7 +7 1019.7 973.7 +8.9 +8.7
В 1.2
{1.8}
+8.4 +8.4 100 +7 +7 1019.5 973.5 +8.4 +8.4
В 1.0
{1.7}
+8.1 +8.1 100 +7 +7 1019.4 973.4 +8.4 +8.1
В 1.1
{2.0}
+8.1 +8.1 100 +7 +7 1019.3 973.3 +8.2 +8.0
В 0.9
{1.9}
+8.1 +8.1 100 +7 +7 1019.1 973.2 +8.2 +8.1
В 0.6
{1.0}
+7.8 +7.8 100 +8 +8 1019.0 973.1 +8.1 +7.8
СВ 0.9
{1.3}
+7.7 +7.7 100 +7 +7 1018.9 973.0 +7.8 +7.7
СВ 1.0
{1.7}
+7.7 +7.7 100 +7 +7 1018.8 972.9 +7.8 +7.7
Ю 1.0
{1.8}
+7.4 +7.4 100 +6 +6 1018.6 972.7 +7.4 +7.4
ЮВ 0.4
{0.6}
+7.3 +7.3 100 +8 +8 1018.6 972.7 +7.3 +7.3
В 0.8
{1.5}
+7.3 +7.3 100 +6 +6 1018.5 972.6 +7.3 +7.1
ЮВ 0.6
{1.6}
+7.4 +7.4 100 +7 +7 1018.4 972.5 +7.6 +7.4
В 0.8
{1.3}
+7.5 +7.5 100 +7 +7 1018.4 972.5 +7.5 +7.3
СВ 1.3
{1.8}
+7.4 +7.4 100 +6 +6 1018.3 972.4 +7.5 +7.4
СВ 1.0
{1.4}
+7.9 +7.9 100 +7 +7 1018.3 972.4 +7.9 +7.4
СВ 0.7
{1.0}
+8.6 +8.6 100 +8 +8 1018.2 972.3 +8.6 +7.9
СВ 1.0
{1.4}
+9.3 +9.3 100 +8 +8 1018.2 972.3 +9.3 +8.6
СВ 0.5
{1.4}
+10.4 +10.4 100 +11 +11 1018.2 972.3 +10.3 +9.6
СВ 0.8
{2.0}
+11.6 +11.6 100 +12 +12 1018.2 972.3 +11.7 +11.3
СВ 0.7
{1.4}
+12.3 +12.3 100 +13 +13 1018.2 972.3 +12.3 +11.6
В 0.6
{1.0}
+13.0 +11.8 92 +14 +14 1018.1 972.2 +13.0 +12.3
СВ 0.8
{1.4}
+14.4 +12.1 86 +15 +15 1018.0 972.1 +14.3 +13.7
СВ 0.6
{1.2}
+15.6 +12.8 84 +17 +17 1018.0 972.1 +15.6 +14.9
СЗ 0.5
{1.5}
+17.1 +11.7 71 +19 +19 1017.8 971.9 +17.1 +16.1
СЗ 1.0
{2.1}
+17.2 +10.9 66 +18 +18 1017.8 971.9 +17.2 +16.9
СЗ 1.2
{2.3}
+17.9 +10.2 60 +19 +19 1017.7 971.8 +17.9 +17.2
С 1.5
{3.0}
+18.3 +9.6 57 +19 +19 1017.6 971.7 +18.3 +17.8
СЗ 1.6
{3.4}
+19.2 +8.7 50 +21 +21 комфорт 1017.6 971.7 +19.3 +18.5
С 1.8
{3.4}
+20.1 +7.8 45 +22 +22 комфорт 1017.2 971.3 +20.5 +19.6
С 2.1
{4.7}
+20.3 +7.4 43 +22 +22 комфорт 1017.2 971.3 +20.4 +19.8
С 1.8
{3.8}
+20.6 +6.9 41 +22 +22 комфорт 1017.1 971.2 +20.7 +20.3
С 2.1
{4.2}
+20.7 +7.2 42 +22 +22 комфорт 1016.9 971.0 +20.9 +20.5
СВ 2.1
{4.5}
+21.5 +7.2 40 +22 +22 комфорт 1016.7 970.9 +21.5 +20.7
СВ 2.7
{4.7}
+21.5 +8.1 42 +23 +23 комфорт 1016.6 970.8 +21.5 +21.1
С 1.9
{4.3}
+22.3 +7.7 39 +23 +23 комфорт 1016.5 970.7 +22.4 +21.5
С 2.5
{5.9}
+22.0 +6.9 37 +23 +23 комфорт 1016.4 970.6 +22.4 +22.0
С 2.3
{4.7}
+22.7 +6.8 36 +23 +23 комфорт 1016.3 970.5 +22.7 +22.0
С 2.4
{4.3}
+23.4 +7.4 36 +24 +24 комфорт 1016.2 970.4 +23.3 +22.7
С 2.4
{6.0}
+23.1 +6.2 33 +24 +24 комфорт 1016.1 970.3 +23.5 +23.0
С 2.1
{4.5}
+23.7 +7.3 35 +24 +24 комфорт 1016.1 970.3 +23.7 +23.1
С 2.2
{4.5}
+24.1 +5.5 30 +24 +24 комфорт 1015.9 970.1 +24.1 +23.6
С 2.1
{5.3}
+24.5 +5.8 30 +24 +24 комфорт 1015.8 970.0 +24.5 +24.0
С 1.9
{4.4}
+24.9 +6.0 30 +25 +25 комфорт 1015.7 969.9 +25.0 +24.4
С 2.7
{5.5}
+24.7 +5.8 30 +25 +25 комфорт 1015.6 969.8 +25.0 +24.5
С 2.1
{4.5}
+25.3 +4.3 26 +25 +25 комфорт 1015.4 969.6 +25.3 +24.7
С 2.1
{4.3}
+25.6 +5.7 28 +25 +25 комфорт 1015.3 969.5 +25.5 +25.1
СВ 2.3
{4.5}
+25.7 +5.7 28 +25 +25 комфорт 1015.2 969.4 +25.7 +25.2
СВ 2.2
{4.6}
+25.5 +5.3 27 +25 +25 комфорт 1015.1 969.3 +25.9 +25.4
СЗ 1.6
{4.6}
+25.8 +4.0 25 +25 +25 комфорт 1014.9 969.1 +25.8 +25.4
С 2.0
{4.8}
+26.1 +3.2 23 +25 +25 комфорт 1014.8 969.0 +26.4 +25.8
СВ 2.0
{4.5}
+26.4 +4.7 25 +26 +26 жарко 1014.8 969.0 +26.3 +25.8
СВ 2.2
{4.4}
+26.6 +4.3 24 +26 +26 жарко 1014.7 968.9 +26.7 +26.3
СЗ 1.9
{4.2}
+26.9 +4.3 23 +26 +26 жарко 1014.7 968.9 +27.2 +26.5
СЗ 2.0
{4.3}
+26.9 +3.4 22 +26 +26 жарко 1014.6 968.8 +27.4 +26.9
С 1.7
{4.0}
+27.2 +4.3 23 +26 +26 жарко 1014.5 968.7 +27.3 +26.8
СЗ 2.3
{4.6}
+27.1 +3.2 21 +26 +26 жарко 1014.4 968.6 +27.4 +27.0
СЗ 1.9
{4.1}
+27.9 +6.0 25 +27 +27 жарко 1014.4 968.6 +27.9 +26.8
СЗ 2.0
{4.3}
+27.7 +4.5 23 +26 +26 жарко 1014.2 968.5 +28.0 +27.7
С 1.9
{4.6}
+28.0 +3.4 21 +26 +26 жарко 1014.2 968.5 +28.0 +27.6
СЗ 1.7
{3.6}
+28.1 +4.1 21 +27 +27 жарко 1014.1 968.4 +28.1 +27.7
СЗ 2.3
{5.1}
+28.3 +1.8 18 +26 +26 жарко 1013.9 968.2 +28.6 +28.3
С 1.7
{4.3}
+28.8 +2.6 19 +27 +27 жарко 1013.9 968.2 +28.9 +28.2
С 1.9
{4.7}
+28.5 +2.5 19 +27 +27 жарко 1013.8 968.1 +28.9 +28.5
СЗ 2.4
{5.4}
+28.9 +1.4 17 +27 +27 жарко 1013.8 968.1 +28.9 +28.5
СЗ 1.8
{5.0}
+28.7 +0.3 16 +26 +26 жарко 1013.6 967.9 +28.9 +28.6
С 1.9
{4.1}
+29.0 +1.9 18 +27 +27 жарко 1013.6 967.9 +29.1 +28.7
СЗ 2.1
{4.4}
+29.4 -0.1 15 +27 +27 жарко 1013.5 967.8 +29.4 +28.9
СЗ 2.0
{4.0}
+28.8 +0.2 16 +26 +26 жарко 1013.4 967.7 +29.4 +28.8
СЗ 1.8
{4.1}
+29.2 +0.6 16 +27 +27 жарко 1013.3 967.6 +29.2 +28.8
С 1.8
{4.6}
+29.1 +0.9 16 +27 +27 жарко 1013.3 967.6 +29.3 +29.1
С 1.7
{3.9}
+29.5 +1.9 17 +27 +27 жарко 1013.3 967.6 +29.6 +29.1
С 2.0
{4.1}
+29.1 +2.6 18 +27 +27 жарко 1013.3 967.6 +29.5 +28.9
С 2.1
{4.9}
+29.2 +0.9 16 +27 +27 жарко 1013.3 967.6 +29.2 +29.0
С 1.5
{3.2}
+29.2 +2.1 17 +27 +27 жарко 1013.3 967.6 +29.2 +29.1
Местоположение метеостанции Нурафшан (Ташкентская область, Узбекистан): широта 41.05 долгота 69.36 высота над уровнем моря 0 м.
В архиве по умолчанию представлена погода в Нурафшане за последние 1-2 суток. Обновление информации о фактической погоде в базе происходит ежечасно! Архивные данные за месяц целиком и за предыдущие месяцы Вы можете получить, выбрав интересующий диапазон дат из раскрывающегося списка и нажав кнопку "Ввод!".
*Определитесь, кто Вы:
Внимание! Время в таблицах - местное (без учета летнего времени). Для получения всемирного времени необходимо вычесть поправку, которая равна 5 ч.
Смотрите также архив погоды на ближайших метеорологических станциях:
Партнеры нашего сайта:      
Пояснения к столбцам:
  • Ветер - указаны скорость ветра в м/с - средняя за 10 мин, порывы в срок и между сроками (в фигурных скобках) и направление, откуда дует ветер: С - северный,
  • СВ - северо-восточный, В - восточный, ЮВ - юго-восточный, Ю - южный, ЮЗ - юго-западный, З - западный, СЗ - северо-западный.
  • Видимость - горизонтальная дальность видимости в метрах или километрах. При видимости от 1 до 10 км при отсутствии осадков обычно наблюдается дымка, при ухудшении видимости до 1 км и менее - туман. В сухую погоду видимость может ухудшаться дымом, пылью или мглою.
  • Явления - указаны атмосферные явления, наблюдавшиеся в срок или в последний час перед сроком.
  • Солнечная радиация - мощность потока солнечного излучения на поверхность земли и предметов в Вт/м2.
  • T - Температура воздуха - температура, измеренная на высоте 2 м над землей.
  • Td - Температура точки росы - температура, при понижении до которой содержащийся в воздухе водяной пар достигнет насыщения.
  • f - Относительная влажность воздуха - влажноcть воздуха, измеренная на высоте 2 м над землей.
  • Te - Эффективная температура - температура, которую ощущает одетый по сезону человек в тени. Характеристика душности погоды. При расчете учитывается влияние влажности воздуха и скорости ветра на теплоощущения человека.
  • Tes - Эффективная температура на солнце - температура, которую ощущает человек, с поправкой на солнечный нагрев. Характеристика знойности погоды. Зависит от высоты солнца над горизонтом, облачности и скорости ветра. Ночью, в пасмурную погоду, а также при ветре 12 м/с и более поправка равна нулю.
  • P - Атмосферное давление - приведенное к уровню моря атмосферное давление.
  • Po - Атмосферное давление - измеренное на уровне метеостанции атмосферное давление.
  • Tmin - Минимальная температура - минимум температуры воздуха на высоте 2 м над землей.
  • Tmax - Максимальная температура - максимум температуры воздуха на высоте 2 м над землей.
  • R - Количество осадков - Количество выпавших осадков за период времени, мм. При наведении курсора мыши на число - период времени, за который выпало указанное количество осадков.